Location: Broletto
(44.6000°N, 10.5833°E)
Time: 02:35:27
(UTC+00:00)

Cosmos 2151 - Pass Details

Date: 18 April 2021
Orbit: 581 x 600 km, 82.5° (Epoch: 15 May)

Event Time Altitude Azimuth Distance (km) Brightness Sun altitude
Rises 20:38:28 0° 347° (NNW) 2,860 7.4 -23.7°
Reaches altitude 10° 20:40:42 10° 344° (NNW) 1,952 6.5 -24.0°
Maximum altitude 20:44:57 58° 266° (W) 700 3.4 -24.5°
Enters shadow 20:45:17 56° 243° (WSW) 715 3.3 -24.6°
